{"data":{"norad_id":68339,"intl_designator":"2026-059U","name":"STARLINK-37200","alt_names":[],"object_type":"PAYLOAD","status":"ACTIVE","operator":null,"country":"US","launch_date":"2026-03-22","launch_site_code":"AFETR","launch_vehicle":null,"mission":null,"orbit_class":"UNKNOWN","rcs_meters":null,"size_class":null,"mass_kg":null,"dimensions":null,"purposes":["comms"],"wikipedia_slug":null,"has_3d_model":false,"image_url":null,"decayed_at":null,"tle_current":{"epoch":"2026-05-24T23:51:15.526944Z","epoch_age_seconds":78710,"freshness":"FRESH","line1":"1 68339U 26059U   26144.99392971  .00019098  00000+0  65495-3 0  9995","line2":"2 68339  53.1578 353.4437 0000927  79.3656 280.7450 15.30215503  9867","mean_motion":15.30215503,"eccentricity":9.27e-5,"inclination_deg":53.1578,"raan_deg":353.4437,"arg_perigee_deg":79.3656,"mean_anomaly_deg":280.745,"bstar":0.00065495,"rev_number":986,"period_min":94.104392301403,"perigee_km":474.5334792007,"apogee_km":475.80408209243,"semimajor_km":6853.3057806466,"source":"CELESTRAK","updated_at":"2026-05-25T13:38:21.925424Z"}}}